When you browse on this site, cookies collect data to enhance your experience and personalize the content and advertising you see.
Visit our Privacy Policy to learn more. By continuing to use the site, you agree to this use of cookies and data.
EN

Hourly Weather Lesovy

Today, 9 August, Sunday

Time Temperature Precipitation Wind Pressure Humidity
00:00 +20°C° 0 mm 1 mps 734 mmHg 87%
01:00 +20°C° 0 mm 1 mps 734 mmHg 88%
02:00 +17°C° 0 mm 0 mps 733 mmHg 90%
03:00 +17°C° 0 mm 0 mps 733 mmHg 90%
04:00 +17°C° 0 mm 0 mps 733 mmHg 90%
05:00 +17°C° 0 mm 0 mps 733 mmHg 91%
06:00 +18°C° 0 mm 0 mps 733 mmHg 86%
07:00 +20°C° 0 mm 0 mps 733 mmHg 82%
08:00 +21°C° 0 mm 0 mps 734 mmHg 75%
09:00 +22°C° 0.8 mm 0 mps 734 mmHg 71%
10:00 +25°C° 0.8 mm 1 mps 734 mmHg 67%
11:00 +27°C° 0.8 mm 1 mps 734 mmHg 63%
12:00 +27°C° 0.5 mm 1 mps 733 mmHg 61%
13:00 +27°C° 0.5 mm 1 mps 733 mmHg 59%
14:00 +28°C° 0 mm 2 mps 733 mmHg 57%
15:00 +28°C° 0.7 mm 2 mps 733 mmHg 59%
16:00 +27°C° 0.7 mm 2 mps 733 mmHg 62%
17:00 +27°C° 0.7 mm 2 mps 732 mmHg 64%
18:00 +25°C° 0.4 mm 2 mps 732 mmHg 71%
19:00 +24°C° 0.4 mm 2 mps 732 mmHg 77%
20:00 +21°C° 0.4 mm 2 mps 732 mmHg 83%
21:00 +21°C° 0.3 mm 1 mps 732 mmHg 85%
22:00 +21°C° 0.3 mm 1 mps 732 mmHg 86%
23:00 +18°C° 0.3 mm 0 mps 732 mmHg 88%

Tomorrow, 10 August, Monday

Time Temperature Precipitation Wind Pressure Humidity
00:00 +18°C° 0.3 mm 0 mps 732 mmHg 88%
01:00 +18°C° 0.3 mm 0 mps 731 mmHg 88%
02:00 +18°C° 0.3 mm 0 mps 731 mmHg 89%
03:00 +17°C° 0 mm 0 mps 731 mmHg 89%
04:00 +17°C° 0 mm 0 mps 731 mmHg 90%
05:00 +17°C° 0 mm 0 mps 731 mmHg 91%
06:00 +18°C° 0.1 mm 0 mps 731 mmHg 88%
07:00 +21°C° 0.1 mm 1 mps 731 mmHg 85%
08:00 +22°C° 0.1 mm 1 mps 731 mmHg 82%
09:00 +24°C° 0.8 mm 1 mps 731 mmHg 76%
10:00 +25°C° 0.8 mm 1 mps 731 mmHg 70%
11:00 +26°C° 0.8 mm 2 mps 732 mmHg 64%
12:00 +27°C° 0.3 mm 2 mps 731 mmHg 62%
13:00 +27°C° 0.3 mm 2 mps 731 mmHg 60%
14:00 +28°C° 0.3 mm 2 mps 731 mmHg 58%
15:00 +27°C° 0.4 mm 2 mps 731 mmHg 61%
16:00 +27°C° 0.4 mm 2 mps 731 mmHg 64%
17:00 +26°C° 0.4 mm 2 mps 731 mmHg 68%
18:00 +25°C° 0.5 mm 2 mps 731 mmHg 73%
19:00 +23°C° 0.5 mm 2 mps 731 mmHg 79%
20:00 +20°C° 0.5 mm 2 mps 731 mmHg 85%
21:00 +20°C° 0 mm 2 mps 731 mmHg 86%
22:00 +20°C° 0 mm 1 mps 731 mmHg 88%
23:00 +19°C° 0 mm 1 mps 731 mmHg 90%

Day after tomorrow, 11 August, Tuesday

Time Temperature Precipitation Wind Pressure Humidity
00:00 +19°C° 0 mm 1 mps 731 mmHg 90%
01:00 +19°C° 0 mm 1 mps 731 mmHg 90%
02:00 +18°C° 0 mm 1 mps 731 mmHg 90%
03:00 +18°C° 0 mm 1 mps 731 mmHg 91%
04:00 +18°C° 0 mm 1 mps 731 mmHg 91%
05:00 +18°C° 0 mm 1 mps 731 mmHg 91%
06:00 +19°C° 0 mm 1 mps 731 mmHg 88%
07:00 +20°C° 0 mm 1 mps 732 mmHg 85%
08:00 +21°C° 0 mm 1 mps 732 mmHg 81%
09:00 +23°C° 0 mm 1 mps 732 mmHg 76%
10:00 +24°C° 0 mm 1 mps 732 mmHg 72%
11:00 +25°C° 0 mm 1 mps 732 mmHg 67%
12:00 +26°C° 0.1 mm 1 mps 732 mmHg 64%
13:00 +26°C° 0.1 mm 2 mps 732 mmHg 62%
14:00 +27°C° 0.1 mm 2 mps 732 mmHg 59%
15:00 +26°C° 0.4 mm 2 mps 732 mmHg 62%
16:00 +26°C° 0.4 mm 2 mps 732 mmHg 64%
17:00 +26°C° 0.4 mm 2 mps 732 mmHg 67%
18:00 +24°C° 0.4 mm 2 mps 732 mmHg 72%
19:00 +21°C° 0.4 mm 2 mps 731 mmHg 78%
20:00 +21°C° 0.4 mm 1 mps 731 mmHg 84%
21:00 +20°C° 0.3 mm 1 mps 731 mmHg 86%
22:00 +19°C° 0.3 mm 1 mps 731 mmHg 88%
23:00 +19°C° 0.3 mm 1 mps 732 mmHg 90%

12 August, Wednesday

Time Temperature Precipitation Wind Pressure Humidity
00:00 +18°C° 0 mm 1 mps 732 mmHg 91%
01:00 +17°C° 0 mm 2 mps 732 mmHg 93%
02:00 +17°C° 0 mm 2 mps 732 mmHg 94%
03:00 +16°C° 0 mm 2 mps 732 mmHg 95%
04:00 +16°C° 0 mm 2 mps 732 mmHg 95%
05:00 +16°C° 0 mm 2 mps 732 mmHg 96%
06:00 +17°C° 0 mm 2 mps 732 mmHg 94%
07:00 +18°C° 0 mm 2 mps 732 mmHg 92%
08:00 +19°C° 0 mm 2 mps 733 mmHg 90%
09:00 +19°C° 0.1 mm 3 mps 733 mmHg 88%
10:00 +20°C° 0.1 mm 3 mps 733 mmHg 85%
11:00 +21°C° 0.1 mm 3 mps 733 mmHg 82%
12:00 +21°C° 0.1 mm 3 mps 733 mmHg 77%
13:00 +22°C° 0.1 mm 4 mps 733 mmHg 71%
14:00 +23°C° 0.1 mm 4 mps 733 mmHg 66%
15:00 +23°C° 0 mm 4 mps 733 mmHg 66%
16:00 +22°C° 0 mm 4 mps 733 mmHg 66%
17:00 +22°C° 0 mm 4 mps 733 mmHg 66%
18:00 +20°C° 0 mm 3 mps 733 mmHg 72%
19:00 +19°C° 0 mm 3 mps 733 mmHg 77%
20:00 +17°C° 0 mm 2 mps 733 mmHg 82%
21:00 +16°C° 0 mm 2 mps 733 mmHg 83%
22:00 +15°C° 0 mm 2 mps 733 mmHg 85%
23:00 +15°C° 0 mm 2 mps 733 mmHg 86%

13 August, Thursday

Time Temperature Precipitation Wind Pressure Humidity
00:00 +14°C° 0 mm 2 mps 733 mmHg 87%
01:00 +14°C° 0 mm 2 mps 733 mmHg 88%
02:00 +13°C° 0 mm 2 mps 733 mmHg 89%
03:00 +13°C° 0 mm 1 mps 733 mmHg 90%
04:00 +13°C° 0 mm 1 mps 733 mmHg 91%
05:00 +13°C° 0 mm 1 mps 733 mmHg 91%
06:00 +14°C° 0 mm 1 mps 733 mmHg 87%
07:00 +15°C° 0 mm 1 mps 733 mmHg 82%
08:00 +18°C° 0 mm 1 mps 733 mmHg 78%
09:00 +19°C° 0 mm 1 mps 733 mmHg 73%
10:00 +21°C° 0 mm 1 mps 733 mmHg 69%
11:00 +22°C° 0 mm 1 mps 733 mmHg 64%
12:00 +22°C° 0 mm 1 mps 733 mmHg 63%
13:00 +23°C° 0 mm 2 mps 733 mmHg 61%
14:00 +23°C° 0 mm 2 mps 733 mmHg 60%
15:00 +23°C° 0 mm 2 mps 732 mmHg 62%
16:00 +21°C° 0 mm 2 mps 732 mmHg 63%
17:00 +21°C° 0 mm 3 mps 732 mmHg 65%
18:00 +20°C° 0 mm 3 mps 732 mmHg 69%
19:00 +18°C° 0 mm 3 mps 732 mmHg 74%
20:00 +16°C° 0 mm 3 mps 732 mmHg 78%
21:00 +16°C° 0 mm 3 mps 732 mmHg 81%
22:00 +14°C° 0 mm 3 mps 732 mmHg 83%
23:00 +13°C° 0 mm 3 mps 732 mmHg 86%

14 August, Friday

Time Temperature Precipitation Wind Pressure Humidity
00:00 +13°C° 0 mm 3 mps 732 mmHg 86%
01:00 +13°C° 0 mm 2 mps 732 mmHg 85%
02:00 +13°C° 0 mm 2 mps 732 mmHg 85%
03:00 +13°C° 0 mm 2 mps 732 mmHg 86%
04:00 +11°C° 0 mm 3 mps 732 mmHg 87%
05:00 +11°C° 0 mm 3 mps 732 mmHg 89%
06:00 +12°C° 0 mm 3 mps 732 mmHg 85%
07:00 +14°C° 0 mm 3 mps 732 mmHg 81%
08:00 +15°C° 0 mm 4 mps 733 mmHg 77%
09:00 +17°C° 0 mm 4 mps 733 mmHg 73%
10:00 +19°C° 0 mm 4 mps 733 mmHg 69%
11:00 +20°C° 0 mm 4 mps 733 mmHg 65%
12:00 +20°C° 0 mm 4 mps 733 mmHg 64%
13:00 +21°C° 0 mm 4 mps 732 mmHg 63%
14:00 +22°C° 0 mm 4 mps 732 mmHg 61%
15:00 +21°C° 0 mm 4 mps 732 mmHg 63%
16:00 +21°C° 0 mm 4 mps 732 mmHg 64%
17:00 +21°C° 0 mm 4 mps 732 mmHg 65%
18:00 +19°C° 0 mm 4 mps 732 mmHg 70%
19:00 +17°C° 0 mm 4 mps 732 mmHg 75%
20:00 +16°C° 0 mm 3 mps 732 mmHg 80%
21:00 +14°C° 0 mm 4 mps 732 mmHg 81%
22:00 +13°C° 0 mm 4 mps 732 mmHg 82%
23:00 +13°C° 0 mm 4 mps 732 mmHg 83%
Show more